This demonstration page uses our WeatherBlox Daily Observations layout. Learn more.

Left ArrowRight Arrow

53.62937, 11.41316

Hourly Observations for September 10, 2021

Temp ( °F °C ) Dew Point ( °F °C ) Humidity (%) Winds ( mph kmh ) Pressure ( in mb ) Visibility ( mi km ) Precip ( " mm )
7:20 am 07:20 Mostly Sunny 61 16 59 15 94 94 N N/A 29.85 1011 7 11 N/A
7:50 am 07:50 Mostly Sunny 63 17 61 16 94 94 VRB 1 2 29.85 1011 7 11 N/A
8:20 am 08:20 Mostly Sunny 63 17 61 16 94 94 SSW 2 4 29.85 1011 7 11 N/A
8:50 am 08:50 Mostly Sunny 64 18 63 17 94 94 VRB 1 2 29.85 1011 7 11 N/A
9:20 am 09:20 Mostly Cloudy 64 18 63 17 94 94 SSW 3 6 29.88 1012 6 9 N/A
9:50 am 09:50 Mostly Sunny 68 20 64 18 88 88 SW 8 13 29.88 1012 30 48 N/A
10:20 am 10:20 Mostly Sunny 66 19 64 18 94 94 SW 5 7 29.88 1012 7 11 N/A
10:50 am 10:50 Mostly Cloudy with Light Rain 66 19 64 18 94 94 VRB 2 4 29.91 1013 6 9 N/A
11:20 am 11:20 Partly Cloudy with Light Rain 66 19 64 18 94 94 SSW 6 9 29.91 1013 6 9 N/A
11:50 am 11:50 Partly Cloudy with Light Rain 64 18 64 18 100 100 SW 8 13 29.91 1013 5 8 N/A
12:20 pm 12:20 Partly Cloudy with Light Rain 64 18 64 18 100 100 VRB 2 4 29.91 1013 5 8 N/A
12:50 pm 12:50 Partly Cloudy with Light Rain 64 18 64 18 100 100 S 3 6 29.91 1013 6 9 N/A
1:20 pm 13:20 Partly Cloudy with Light Rain 66 19 64 18 94 94 SSE 3 6 29.91 1013 6 9 N/A
1:50 pm 13:50 Mostly Sunny 66 19 64 18 94 94 S 5 7 29.91 1013 6 9 N/A
2:20 pm 14:20 Mostly Sunny 68 20 64 18 88 88 S 5 7 29.91 1013 6 9 N/A
2:50 pm 14:50 Partly Cloudy 68 20 64 18 88 88 S 6 9 29.91 1013 6 9 N/A
3:20 pm 15:20 Partly Cloudy 68 20 64 18 88 88 S 5 7 29.91 1013 30 48 N/A
3:50 pm 15:50 Partly Cloudy 68 20 66 19 94 94 S 5 7 29.91 1013 30 48 N/A
4:20 pm 16:20 Partly Cloudy 70 21 66 19 88 88 S 5 7 29.91 1013 30 48 N/A
4:50 pm 16:50 Mostly Sunny 70 21 64 18 83 83 WSW 3 6 29.91 1013 30 48 N/A
5:20 pm 17:20 Mostly Sunny 72 22 64 18 78 78 SSW 3 6 29.91 1013 30 48 N/A
5:50 pm 17:50 Mostly Sunny 72 22 64 18 78 78 VRB 2 4 29.91 1013 7 11 N/A
6:20 pm 18:20 Mostly Sunny 70 21 63 17 78 78 VRB 2 4 29.91 1013 7 11 N/A
6:50 pm 18:50 Mostly Sunny 70 21 64 18 83 83 VRB 1 2 29.91 1013 7 11 N/A
7:20 pm 19:20 Mostly Sunny 68 20 64 18 88 88 VRB 1 2 29.91 1013 7 11 N/A
7:50 pm 19:50 Mostly Clear 66 19 64 18 94 94 N N/A 29.88 1012 7 11 N/A
8:20 pm 20:20 Mostly Clear 64 18 64 18 100 100 VRB 1 2 29.91 1013 7 11 N/A
8:50 pm 20:50 Mostly Clear 63 17 63 17 100 100 VRB 1 2 29.91 1013 7 11 N/A
9:20 pm 21:20 Mostly Clear with Patchy Fog 63 17 63 17 100 100 VRB 1 2 29.91 1013 30 48 N/A
9:50 pm 21:50 Mostly Clear with Mist and Fog 61 16 61 16 100 100 VRB 1 2 29.91 1013 3 5 N/A

Powered by AerisWeather